This is the latest recevied weather packets stored in our database for station/object DG4DAZ-6. If no packets are shown the sender has not sent any weather packets the latest 1 day(s).
| Time | Temp. | Humidity | Pressure | Rain* | Wind** | Luminosity | Snow |
|---|---|---|---|---|---|---|---|
| 1777987433 | 14.44° C | 89% | 1006.9 hPa | 0 mm | 0 m/s | 233 W/m² | - |
| 1777986835 | 14.44° C | 90% | 1007 hPa | 0 mm | 0.89 m/s, 27° | 263 W/m² | - |
| 1777986234 | 14.44° C | 90% | 1007.1 hPa | 0 mm | 0 m/s | 231 W/m² | - |
| 1777985633 | 14.44° C | 90% | 1007.1 hPa | 0 mm | 0 m/s | 264 W/m² | - |
| 1777985033 | 14.44° C | 89% | 1007.3 hPa | 0 mm | 0 m/s | 199 W/m² | - |
| 1777984282 | 14.44° C | 89% | 1007.3 hPa | 0 mm | 0 m/s | 116 W/m² | - |
| 1777983684 | 14.44° C | 89% | 1007.2 hPa | 0 mm | 0 m/s | 112 W/m² | - |
| 1777983083 | 14.44° C | 89% | 1007.3 hPa | 0 mm | 0.45 m/s, 360° | 65 W/m² | - |
| 1777982483 | 14.44° C | 88% | 1007.5 hPa | 0 mm | 0 m/s | 74 W/m² | - |
| 1777981882 | 14.44° C | 88% | 1007.5 hPa | 0 mm | 0 m/s | 110 W/m² | - |
| 1777981284 | 14.44° C | 87% | 1007.5 hPa | 0 mm | 0 m/s | 48 W/m² | - |
| 1777980684 | 15° C | 86% | 1007.5 hPa | 0 mm | 0.45 m/s, 74° | 104 W/m² | - |
| 1777980083 | 15.56° C | 86% | 1007.5 hPa | 0 mm | 0 m/s | 186 W/m² | - |
| 1777979482 | 15° C | 84% | 1007.6 hPa | 0 mm | 0 m/s | 222 W/m² | - |
| 1777978884 | 15° C | 86% | 1007.6 hPa | 0 mm | 0 m/s | 281 W/m² | - |
| 1777978283 | 15° C | 88% | 1007.7 hPa | 0 mm | 0 m/s | 267 W/m² | - |
| 1777977682 | 14.44° C | 88% | 1007.8 hPa | 0 mm | 0 m/s | 234 W/m² | - |
| 1777977083 | 13.89° C | 88% | 1007.8 hPa | 0 mm | 0 m/s | 333 W/m² | - |
| 1777976482 | 13.89° C | 90% | 1007.9 hPa | 0 mm | 0 m/s | 379 W/m² | - |
| 1777975882 | 13.89° C | 91% | 1008 hPa | 0 mm | 0 m/s | 194 W/m² | - |
| 1777975282 | 13.89° C | 92% | 1008.1 hPa | 0 mm | 0 m/s | 226 W/m² | - |
| 1777974683 | 13.89° C | 92% | 1008.1 hPa | 0 mm | 0 m/s | 176 W/m² | - |
| 1777974083 | 13.33° C | 92% | 1008.1 hPa | 0 mm | 0 m/s | 182 W/m² | - |
| 1777973482 | 13.33° C | 92% | 1008.1 hPa | 0 mm | 0 m/s | 160 W/m² | - |
| 1777972882 | 13.33° C | 93% | 1008.1 hPa | 0 mm | 0 m/s | 158 W/m² | - |
* Rain latest hour (hover to see other rain measurements)
** Current wind speed in m/s (hover to see current wind gust speed)